星链-30388 (STARLINK-30388 )

导读

STARLINK-30388是美国太空探索技术公司(SpaceX)星链(Starlink)低轨互联网卫星星座中的一员,于2023年9月4日发射入轨。它作为星链项目批量部署的卫星之一,运行在近地轨道,旨在为全球尤其是网络基础设施匮乏的偏远地区提供高速、低延迟的宽带互联网接入服务,支撑星链星座实现全球覆盖的组网目标。

基本信息
目录编号:
57784
目录名称:
STARLINK-30388
国际标识:
2023-134P
轨道中心:
EARTH
卫星名称:
星链-30388
卫星全名:
星链-30388 (STARLINK-30388 )
卫星状态:
在轨 (已飞行1097 天)
发射日期:
2023-09-04 UTC
国别 :
美国 (US)
星等 :
--
轨道信息
数据来源 国际轨道数据
星历时间: 2026-09-04T18:04:34+0800
15小时前
查看轨道信息
半长轴: 6861.168km
偏心率: 0.0001554
轨道倾角: 43.002°
近地点辐角 272.101°
升交点赤经 264.910°
平近点角 87.967°
近地点: 481.964km
远地点: 484.098km
周期: 94.266分钟
每日圈数: 15.275863
详细信息
固有亮度:
5
最大亮度:
0.3
卫星平台:
Starlink v2.0 mini
覆盖范围:
全球
运营商:
太空探索技术公司
运营商所在国:
美国
制造商(研发单位):
太空探索技术公司
制造商所在国:
美国
使用方式:
暂无
卫星简介
星链(Starlink)计划是由太空探索技术公司(SpaceX)提出的一个巨型低轨卫星互联网星座项目,计划在2019年至2024年间在太空搭建由约1.2万颗卫星组成的“星链”网络,其中1584颗将部署在地球上空550千米处的近地轨道,并从2020年开始工作。该卫星仍在工作。
2D轨道图
3D轨道图
轨道高度分析图
轨道倾角分析图
轨道综合分析图
查看轨道综合分析图
交会数据列表
事件ID 空间交会对象 最接近时刻(TCA) 交会距离 交会风险概率(CRP) 交会风险指数(CRI) 操作
CDM_260905-180305-290705-778423
2026-09-05T
18:03:05+0000
0.656 km
远距离
6.317604E-5 中风险 0.71
CDM_260830-170405-778406-538421
2026-08-30T
17:04:17+0000
2.169 km
极远距离
2.304045E-6 低风险 0.42